| time (UTC) | temp F | wind direction | speed knots | gust knots | rain 1hr in | rain 24hr in | rain mn in | humidity % | barometer mb |
| 20260906231409 | 99 | 158 | 1.7 | 5.2 | 0.00 | 0.00 | 0.00 | 40 | 1010.3 |
| 20260906230908 | 99 | 193 | 0.9 | 6.1 | 0.00 | 0.00 | 0.00 | 40 | 1010.3 |
| 20260906230403 | 99 | 144 | 2.6 | 2.6 | 0.00 | 0.00 | 0.00 | 41 | 1010.4 |
| 20260906225901 | 98 | 193 | 2.6 | 2.6 | 0.00 | 0.00 | 0.00 | 41 | 1010.3 |
| 20260906225357 | 98 | 182 | 3.5 | 7.0 | 0.00 | 0.00 | 0.00 | 40 | 1010.4 |
| 20260906224853 | 99 | 160 | 3.5 | 7.8 | 0.00 | 0.00 | 0.00 | 40 | 1010.3 |
| 20260906224349 | 99 | 160 | 1.7 | 2.6 | 0.00 | 0.00 | 0.00 | 41 | 1010.3 |
| 20260906223845 | 100 | 220 | 0.9 | 5.2 | 0.00 | 0.00 | 0.00 | 41 | 1010.3 |
| 20260906223341 | 100 | 180 | 2.6 | 5.2 | 0.00 | 0.00 | 0.00 | 40 | 1010.3 |
| 20260906222839 | 99 | 173 | 1.7 | 2.6 | 0.00 | 0.00 | 0.00 | 39 | 1010.4 |
| 20260906222338 | 99 | 182 | 0.9 | 5.2 | 0.00 | 0.00 | 0.00 | 41 | 1010.4 |
| 20260906221836 | 100 | 95 | 1.7 | 5.2 | 0.00 | 0.00 | 0.00 | 39 | 1010.5 |
| 20260906221336 | 100 | 232 | 1.7 | 6.1 | 0.00 | 0.00 | 0.00 | 40 | 1010.5 |
| 20260906220831 | 101 | 112 | 3.5 | 5.2 | 0.00 | 0.00 | 0.00 | 37 | 1010.4 |
| 20260906220326 | 101 | 348 | 3.5 | 6.1 | 0.00 | 0.00 | 0.00 | 38 | 1010.5 |
| 20260906215825 | 101 | 185 | 1.7 | 3.5 | 0.00 | 0.00 | 0.00 | 39 | 1010.4 |
| 20260906215321 | 100 | 179 | 0.9 | 3.5 | 0.00 | 0.00 | 0.00 | 39 | 1010.5 |
| 20260906214818 | 100 | 171 | 4.3 | 8.7 | 0.00 | 0.00 | 0.00 | 38 | 1010.6 |
| 20260906214313 | 100 | 153 | 2.6 | 7.8 | 0.00 | 0.00 | 0.00 | 39 | 1010.6 |
| 20260906213813 | 100 | 276 | 0.9 | 5.2 | 0.00 | 0.00 | 0.00 | 40 | 1010.6 |
| 20260906213313 | 100 | 152 | 4.3 | 6.1 | 0.00 | 0.00 | 0.00 | 39 | 1010.7 |
| 20260906212810 | 101 | 126 | 4.3 | 6.1 | 0.00 | 0.00 | 0.00 | 38 | 1010.8 |
| 20260906212306 | 100 | 278 | 0.9 | 1.7 | 0.00 | 0.00 | 0.00 | 39 | 1011.0 |
| 20260906211805 | 100 | 172 | 4.3 | 5.2 | 0.00 | 0.00 | 0.00 | 40 | 1010.9 |
| 20260906211300 | 99 | 192 | 2.6 | 8.7 | 0.00 | 0.00 | 0.00 | 40 | 1011.1 |
| 20260906210755 | 100 | 177 | 5.2 | 8.7 | 0.00 | 0.00 | 0.00 | 39 | 1011.1 |
| 20260906210255 | 101 | 181 | 4.3 | 5.2 | 0.00 | 0.00 | 0.00 | 38 | 1011.1 |
| 20260906205755 | 100 | 227 | 3.5 | 6.1 | 0.00 | 0.00 | 0.00 | 39 | 1011.2 |
| 20260906205252 | 101 | 164 | 3.5 | 7.0 | 0.00 | 0.00 | 0.00 | 39 | 1011.3 |
| 20260906204748 | 100 | 185 | 0.0 | 6.1 | 0.00 | 0.00 | 0.00 | 39 | 1011.3 |
| 20260906204247 | 100 | 357 | 0.9 | 3.5 | 0.00 | 0.00 | 0.00 | 40 | 1011.5 |
| 20260906203746 | 98 | 275 | 0.9 | 3.5 | 0.00 | 0.00 | 0.00 | 43 | 1011.5 |
| 20260906203242 | 100 | 200 | 1.7 | 7.0 | 0.00 | 0.00 | 0.00 | 41 | 1011.4 |
| 20260906202738 | 100 | 212 | 1.7 | 6.1 | 0.00 | 0.00 | 0.00 | 41 | 1011.6 |
| 20260906202237 | 99 | 210 | 0.9 | 5.2 | 0.00 | 0.00 | 0.00 | 43 | 1011.8 |
| 20260906201732 | 97 | 175 | 4.3 | 7.0 | 0.00 | 0.00 | 0.00 | 43 | 1011.8 |
| 20260906201232 | 98 | 170 | 2.6 | 7.0 | 0.00 | 0.00 | 0.00 | 43 | 1011.8 |
| 20260906200728 | 98 | 164 | 0.9 | 2.6 | 0.00 | 0.00 | 0.00 | 43 | 1011.9 |
| 20260906200224 | 98 | 132 | 2.6 | 2.6 | 0.00 | 0.00 | 0.00 | 42 | 1011.8 |
| 20260906195719 | 99 | 133 | 2.6 | 7.0 | 0.00 | 0.00 | 0.00 | 41 | 1012.0 |
| 20260906195216 | 99 | 187 | 1.7 | 2.6 | 0.00 | 0.00 | 0.00 | 42 | 1012.2 |
| 20260906194711 | 98 | 175 | 2.6 | 5.2 | 0.00 | 0.00 | 0.00 | 43 | 1012.0 |
| 20260906194206 | 98 | 268 | 2.6 | 2.6 | 0.00 | 0.00 | 0.00 | 43 | 1012.0 |
| 20260906193701 | 98 | 284 | 1.7 | 1.7 | 0.00 | 0.00 | 0.00 | 43 | 1012.1 |
| 20260906193156 | 98 | 213 | 3.5 | 5.2 | 0.00 | 0.00 | 0.00 | 43 | 1012.2 |
| 20260906192652 | 97 | 168 | 3.5 | 13.9 | 0.00 | 0.00 | 0.00 | 44 | 1012.2 |
| 20260906192152 | 97 | 176 | 3.5 | 6.1 | 0.00 | 0.00 | 0.00 | 45 | 1012.2 |
| 20260906191646 | 97 | 184 | 2.6 | 5.2 | 0.00 | 0.00 | 0.00 | 44 | 1012.3 |
| 20260906191146 | 98 | 195 | 1.7 | 7.0 | 0.00 | 0.00 | 0.00 | 44 | 1012.4 |
| 20260906190640 | 97 | 170 | 0.9 | 3.5 | 0.00 | 0.00 | 0.00 | 45 | 1012.5 |
| 20260906190135 | 96 | 167 | 3.5 | 6.1 | 0.00 | 0.00 | 0.00 | 46 | 1012.3 |
| 20260906185634 | 97 | 14 | 3.5 | 5.2 | 0.00 | 0.00 | 0.00 | 45 | 1012.4 |
| 20260906185133 | 97 | 167 | 1.7 | 7.8 | 0.00 | 0.00 | 0.00 | 45 | 1012.7 |
| 20260906184628 | 96 | 198 | 2.6 | 5.2 | 0.00 | 0.00 | 0.00 | 47 | 1012.7 |
| 20260906184124 | 97 | 158 | 0.9 | 3.5 | 0.00 | 0.00 | 0.00 | 46 | 1012.8 |
| 20260906183619 | 97 | 193 | 2.6 | 5.2 | 0.00 | 0.00 | 0.00 | 47 | 1012.8 |
| 20260906183115 | 97 | 187 | 4.3 | 7.8 | 0.00 | 0.00 | 0.00 | 46 | 1013.0 |
| 20260906182609 | 96 | 222 | 0.9 | 3.5 | 0.00 | 0.00 | 0.00 | 47 | 1012.6 |
| 20260906182106 | 96 | 177 | 1.7 | 5.2 | 0.00 | 0.00 | 0.00 | 46 | 1012.9 |
| 20260906181606 | 96 | 109 | 3.5 | 3.5 | 0.00 | 0.00 | 0.00 | 47 | 1013.0 |
| 20260906181102 | 96 | 136 | 1.7 | 7.8 | 0.00 | 0.00 | 0.00 | 46 | 1013.0 |
| 20260906180557 | 97 | 185 | 0.9 | 3.5 | 0.00 | 0.00 | 0.00 | 48 | 1013.1 |
| 20260906180056 | 96 | 185 | 1.7 | 6.1 | 0.00 | 0.00 | 0.00 | 49 | 1013.4 |
| 20260906175555 | 96 | 162 | 5.2 | 6.1 | 0.00 | 0.00 | 0.00 | 47 | 1013.3 |
| 20260906175050 | 96 | 156 | 3.5 | 6.1 | 0.00 | 0.00 | 0.00 | 48 | 1013.3 |
| 20260906174548 | 96 | 131 | 2.6 | 6.1 | 0.00 | 0.00 | 0.00 | 47 | 1013.3 |
| 20260906174044 | 95 | 191 | 2.6 | 5.2 | 0.00 | 0.00 | 0.00 | 49 | 1013.4 |
| 20260906173538 | 96 | 169 | 3.5 | 5.2 | 0.00 | 0.00 | 0.00 | 49 | 1013.6 |
| 20260906173035 | 97 | 154 | 3.5 | 3.5 | 0.00 | 0.00 | 0.00 | 47 | 1013.9 |
| 20260906172534 | 96 | 286 | 0.9 | 2.6 | 0.00 | 0.00 | 0.00 | 49 | 1013.9 |
| 20260906172030 | 95 | 166 | 1.7 | 2.6 | 0.00 | 0.00 | 0.00 | 51 | 1014.0 |
| 20260906171524 | 95 | 167 | 1.7 | 7.0 | 0.00 | 0.00 | 0.00 | 49 | 1014.0 |
| 20260906171020 | 95 | 168 | 0.9 | 3.5 | 0.00 | 0.00 | 0.00 | 51 | 1013.8 |
| 20260906170516 | 94 | 168 | 1.7 | 5.2 | 0.00 | 0.00 | 0.00 | 52 | 1014.0 |
| 20260906170015 | 95 | 143 | 4.3 | 5.2 | 0.00 | 0.00 | 0.00 | 51 | 1013.9 |
| 20260906165512 | 94 | 139 | 2.6 | 3.5 | 0.00 | 0.00 | 0.00 | 52 | 1014.1 |
| 20260906165007 | 93 | 186 | 1.7 | 6.1 | 0.00 | 0.00 | 0.00 | 52 | 1013.9 |
| 20260906164506 | 93 | 170 | 3.5 | 7.0 | 0.00 | 0.00 | 0.00 | 53 | 1014.2 |
| 20260906164003 | 93 | 150 | 3.5 | 5.2 | 0.00 | 0.00 | 0.00 | 53 | 1014.2 |
| 20260906163457 | 92 | 171 | 3.5 | 6.1 | 0.00 | 0.00 | 0.00 | 55 | 1014.2 |
| 20260906162956 | 93 | 185 | 5.2 | 8.7 | 0.00 | 0.00 | 0.00 | 54 | 1014.3 |
| 20260906162454 | 93 | 167 | 0.9 | 3.5 | 0.00 | 0.00 | 0.00 | 54 | 1013.9 |
| 20260906161950 | 93 | 43 | 3.5 | 7.0 | 0.00 | 0.00 | 0.00 | 54 | 1014.1 |
| 20260906161450 | 94 | 138 | 0.9 | 3.5 | 0.00 | 0.00 | 0.00 | 54 | 1014.1 |
| 20260906160949 | 92 | 170 | 0.9 | 5.2 | 0.00 | 0.00 | 0.00 | 55 | 1014.2 |
| 20260906160448 | 92 | 185 | 0.9 | 2.6 | 0.00 | 0.00 | 0.00 | 56 | 1014.1 |
| 20260906155946 | 92 | 178 | 3.5 | 6.1 | 0.00 | 0.00 | 0.00 | 57 | 1014.5 |
| 20260906155445 | 92 | 197 | 0.9 | 3.5 | 0.00 | 0.00 | 0.00 | 56 | 1014.3 |
| 20260906154941 | 91 | 131 | 1.7 | 2.6 | 0.00 | 0.00 | 0.00 | 58 | 1014.1 |
| 20260906154437 | 91 | 179 | 1.7 | 3.5 | 0.00 | 0.00 | 0.00 | 59 | 1014.2 |
| 20260906153935 | 91 | 103 | 0.9 | 1.7 | 0.00 | 0.00 | 0.00 | 59 | 1014.2 |
| 20260906153434 | 91 | 81 | 0.9 | 1.7 | 0.00 | 0.00 | 0.00 | 59 | 1014.1 |
| 20260906152929 | 91 | 120 | 0.9 | 5.2 | 0.00 | 0.00 | 0.00 | 61 | 1014.0 |
| 20260906152424 | 90 | 113 | 2.6 | 3.5 | 0.00 | 0.00 | 0.00 | 63 | 1013.9 |
| 20260906151923 | 90 | 184 | 1.7 | 1.7 | 0.00 | 0.00 | 0.00 | 61 | 1013.7 |
| 20260906151419 | 90 | 199 | 1.7 | 2.6 | 0.00 | 0.00 | 0.00 | 63 | 1013.8 |
| 20260906150914 | 91 | 139 | 1.7 | 1.7 | 0.00 | 0.00 | 0.00 | 62 | 1013.9 |
| 20260906150409 | 90 | 200 | 0.9 | 2.6 | 0.00 | 0.00 | 0.00 | 63 | 1013.8 |
| 20260906145909 | 0 | 17 | 0.0 | 0.9 | 0.00 | 0.00 | 0.00 | 1013.8 | |
| 20260906145407 | 0 | 180 | 1.7 | 1.7 | 0.00 | 0.00 | 0.00 | 1013.7 | |
| 20260906144902 | 0 | 177 | 1.7 | 1.7 | 0.00 | 0.00 | 0.00 | 1013.7 | |
| 20260906144357 | 0 | 300 | 0.9 | 0.9 | 0.00 | 0.00 | 0.00 | 1013.8 | |
| 20260906143852 | 0 | 153 | 0.9 | 1.7 | 0.00 | 0.00 | 0.00 | 1013.7 | |
| 20260906143348 | 0 | 122 | 0.9 | 2.6 | 0.00 | 0.00 | 0.00 | 1013.7 | |
| 20260906142844 | 0 | 184 | 0.9 | 2.6 | 0.00 | 0.00 | 0.00 | 1013.9 | |
| 20260906142338 | 0 | 187 | 0.9 | 1.7 | 0.00 | 0.00 | 0.00 | 1013.9 | |
| 20260906141838 | 87 | 173 | 0.9 | 1.7 | 0.00 | 0.00 | 0.00 | 68 | 1013.9 |
| 20260906141333 | 86 | 202 | 0.9 | 1.7 | 0.00 | 0.00 | 0.00 | 68 | 1014.0 |
| 20260906140832 | 87 | 180 | 1.7 | 2.6 | 0.00 | 0.00 | 0.00 | 68 | 1014.1 |
| 20260906140327 | 87 | 185 | 0.0 | 0.9 | 0.00 | 0.00 | 0.00 | 69 | 1013.9 |
| 20260906135825 | 87 | 186 | 0.9 | 0.9 | 0.00 | 0.00 | 0.00 | 68 | 1013.9 |
| 20260906135320 | 86 | 186 | 0.0 | 0.9 | 0.00 | 0.00 | 0.00 | 71 | 1013.9 |
| 20260906134815 | 86 | 186 | 0.9 | 0.9 | 0.00 | 0.00 | 0.00 | 70 | 1013.7 |
| 20260906134310 | 85 | 134 | 0.0 | 0.0 | 0.00 | 0.00 | 0.00 | 71 | 1013.8 |
| 20260906133806 | 85 | 179 | 0.0 | 1.7 | 0.00 | 0.00 | 0.00 | 72 | 1013.9 |
| 20260906133301 | 86 | 145 | 0.0 | 0.0 | 0.00 | 0.00 | 0.00 | 72 | 1013.8 |
| 20260906132756 | 0 | 185 | 0.0 | 0.0 | 0.00 | 0.00 | 0.00 | 1013.9 | |
| 20260906132252 | 82 | 185 | 0.0 | 0.0 | 0.00 | 0.00 | 0.00 | 77 | 1013.9 |
| 20260906131747 | 82 | 186 | 0.0 | 0.0 | 0.00 | 0.00 | 0.00 | 79 | 1013.7 |
| 20260906131248 | 81 | 186 | 0.0 | 0.0 | 0.00 | 0.00 | 0.00 | 80 | 1013.7 |
| 20260906130743 | 81 | 187 | 0.0 | 0.0 | 0.00 | 0.00 | 0.00 | 80 | 1013.7 |
| 20260906130238 | 81 | 187 | 0.0 | 0.0 | 0.00 | 0.00 | 0.00 | 81 | 1013.6 |
| 20260906125736 | 81 | 187 | 0.0 | 0.0 | 0.00 | 0.00 | 0.00 | 81 | 1013.6 |
| 20260906125235 | 80 | 187 | 0.0 | 0.0 | 0.00 | 0.00 | 0.00 | 82 | 1013.6 |
| 20260906124729 | 80 | 187 | 0.0 | 0.0 | 0.00 | 0.00 | 0.00 | 82 | 1013.8 |
| 20260906124226 | 80 | 187 | 0.0 | 0.0 | 0.00 | 0.00 | 0.00 | 82 | 1013.6 |
| 20260906123724 | 80 | 187 | 0.0 | 0.0 | 0.00 | 0.00 | 0.00 | 83 | 1013.6 |
| 20260906123220 | 80 | 187 | 0.0 | 0.0 | 0.00 | 0.00 | 0.00 | 83 | 1013.4 |
| 20260906122719 | 80 | 187 | 0.0 | 0.0 | 0.00 | 0.00 | 0.00 | 83 | 1013.4 |
| 20260906122214 | 79 | 187 | 0.0 | 0.0 | 0.00 | 0.00 | 0.00 | 83 | 1013.3 |
| 20260906121711 | 79 | 187 | 0.0 | 0.0 | 0.00 | 0.00 | 0.00 | 83 | 1013.4 |
| 20260906121207 | 80 | 187 | 0.0 | 0.0 | 0.00 | 0.00 | 0.00 | 83 | 1013.3 |
| 20260906120702 | 80 | 187 | 0.0 | 0.0 | 0.00 | 0.00 | 0.00 | 83 | 1013.2 |
| 20260906120159 | 80 | 187 | 0.0 | 0.0 | 0.00 | 0.00 | 0.00 | 82 | 1013.0 |
| 20260906115700 | 80 | 187 | 0.0 | 0.9 | 0.00 | 0.00 | 0.00 | 82 | 1013.1 |
| 20260906115155 | 80 | 187 | 0.0 | 0.0 | 0.00 | 0.00 | 0.00 | 82 | 1013.0 |
| 20260906114654 | 80 | 187 | 0.0 | 0.0 | 0.00 | 0.00 | 0.00 | 81 | 1013.2 |
| 20260906114150 | 80 | 187 | 0.0 | 0.9 | 0.00 | 0.00 | 0.00 | 81 | 1013.0 |
| 20260906113650 | 80 | 187 | 0.0 | 0.9 | 0.00 | 0.00 | 0.00 | 80 | 1013.0 |
| 20260906113149 | 80 | 187 | 0.0 | 0.0 | 0.00 | 0.00 | 0.00 | 79 | 1012.8 |
| 20260906112649 | 80 | 187 | 0.9 | 0.9 | 0.00 | 0.00 | 0.00 | 79 | 1012.7 |
| 20260906112146 | 80 | 187 | 0.9 | 0.9 | 0.00 | 0.00 | 0.00 | 79 | 1012.9 |
| 20260906111645 | 80 | 187 | 0.0 | 0.0 | 0.00 | 0.00 | 0.00 | 79 | 1012.7 |
| 20260906111140 | 81 | 187 | 0.0 | 0.9 | 0.00 | 0.00 | 0.00 | 79 | 1012.8 |
| 20260906110635 | 80 | 187 | 0.0 | 0.9 | 0.00 | 0.00 | 0.00 | 79 | 1012.9 |
| 20260906110130 | 80 | 187 | 0.0 | 0.0 | 0.00 | 0.00 | 0.00 | 79 | 1012.9 |
| 20260906105624 | 80 | 187 | 0.0 | 0.0 | 0.00 | 0.00 | 0.00 | 80 | 1012.9 |
| 20260906105120 | 80 | 187 | 0.0 | 0.0 | 0.00 | 0.00 | 0.00 | 80 | 1012.6 |
| 20260906104619 | 80 | 187 | 0.0 | 0.0 | 0.00 | 0.00 | 0.00 | 80 | 1012.7 |
| 20260906104113 | 80 | 187 | 0.0 | 0.0 | 0.00 | 0.00 | 0.00 | 79 | 1012.6 |
| 20260906103612 | 80 | 187 | 0.0 | 0.0 | 0.00 | 0.00 | 0.00 | 79 | 1012.7 |
| 20260906103107 | 81 | 187 | 0.0 | 0.0 | 0.00 | 0.00 | 0.00 | 79 | 1012.7 |
| 20260906102608 | 81 | 187 | 0.0 | 0.0 | 0.00 | 0.00 | 0.00 | 79 | 1012.6 |
| 20260906102102 | 81 | 187 | 0.0 | 0.0 | 0.00 | 0.00 | 0.00 | 78 | 1012.7 |
| 20260906101602 | 81 | 187 | 0.0 | 0.0 | 0.00 | 0.00 | 0.00 | 77 | 1012.7 |
| 20260906101102 | 81 | 187 | 0.0 | 0.0 | 0.00 | 0.00 | 0.00 | 77 | 1012.5 |
| 20260906100558 | 81 | 187 | 0.0 | 0.0 | 0.00 | 0.00 | 0.00 | 76 | 1012.6 |
| 20260906100059 | 82 | 187 | 0.0 | 0.0 | 0.00 | 0.00 | 0.00 | 76 | 1012.3 |
| 20260906095558 | 82 | 187 | 0.0 | 0.9 | 0.00 | 0.00 | 0.00 | 76 | 1012.5 |
| 20260906095054 | 82 | 187 | 0.0 | 0.0 | 0.00 | 0.00 | 0.00 | 76 | 1012.6 |
| 20260906094553 | 82 | 187 | 0.9 | 0.9 | 0.00 | 0.00 | 0.00 | 76 | 1012.4 |
| 20260906094049 | 82 | 187 | 0.9 | 0.9 | 0.00 | 0.00 | 0.00 | 75 | 1012.2 |
| 20260906093544 | 82 | 187 | 0.0 | 1.7 | 0.00 | 0.00 | 0.00 | 75 | 1012.1 |
| 20260906093039 | 82 | 184 | 0.0 | 0.9 | 0.00 | 0.00 | 0.00 | 75 | 1012.3 |
| 20260906092534 | 82 | 184 | 0.0 | 0.9 | 0.00 | 0.00 | 0.00 | 74 | 1012.1 |
| 20260906092029 | 82 | 177 | 0.9 | 1.7 | 0.00 | 0.00 | 0.00 | 74 | 1012.1 |
| 20260906091525 | 82 | 190 | 1.7 | 2.6 | 0.00 | 0.00 | 0.00 | 74 | 1011.8 |
| 20260906091021 | 83 | 177 | 0.9 | 1.7 | 0.00 | 0.00 | 0.00 | 74 | 1012.0 |
| 20260906090522 | 83 | 172 | 2.6 | 3.5 | 0.00 | 0.00 | 0.00 | 74 | 1012.0 |
| 20260906090017 | 83 | 184 | 0.9 | 2.6 | 0.00 | 0.00 | 0.00 | 74 | 1011.8 |
| 20260906085515 | 83 | 200 | 0.9 | 2.6 | 0.00 | 0.00 | 0.00 | 74 | 1011.9 |
| 20260906085015 | 83 | 194 | 0.9 | 3.5 | 0.00 | 0.00 | 0.00 | 73 | 1011.9 |
| 20260906084516 | 83 | 183 | 1.7 | 3.5 | 0.00 | 0.00 | 0.00 | 73 | 1012.0 |
| 20260906084014 | 83 | 192 | 2.6 | 3.5 | 0.00 | 0.00 | 0.00 | 73 | 1012.1 |
| 20260906083510 | 83 | 182 | 0.9 | 3.5 | 0.00 | 0.00 | 0.00 | 73 | 1012.1 |
| 20260906083010 | 83 | 186 | 2.6 | 5.2 | 0.00 | 0.00 | 0.00 | 73 | 1011.9 |
| 20260906082505 | 83 | 195 | 1.7 | 3.5 | 0.00 | 0.00 | 0.00 | 73 | 1011.9 |
| 20260906082001 | 83 | 155 | 1.7 | 2.6 | 0.00 | 0.00 | 0.00 | 73 | 1011.9 |
| 20260906081456 | 83 | 187 | 0.9 | 2.6 | 0.00 | 0.00 | 0.00 | 73 | 1011.9 |
| 20260906080952 | 83 | 129 | 2.6 | 2.6 | 0.00 | 0.00 | 0.00 | 73 | 1011.9 |
| 20260906080448 | 84 | 179 | 0.9 | 2.6 | 0.00 | 0.00 | 0.00 | 73 | 1012.0 |
| 20260906075943 | 84 | 176 | 1.7 | 3.5 | 0.00 | 0.00 | 0.00 | 72 | 1012.2 |
| 20260906075438 | 84 | 182 | 0.9 | 2.6 | 0.00 | 0.00 | 0.00 | 72 | 1012.1 |
| 20260906074933 | 84 | 194 | 1.7 | 3.5 | 0.00 | 0.00 | 0.00 | 72 | 1012.1 |
| 20260906074432 | 84 | 209 | 0.9 | 2.6 | 0.00 | 0.00 | 0.00 | 72 | 1012.2 |
| 20260906073931 | 84 | 193 | 0.9 | 3.5 | 0.00 | 0.00 | 0.00 | 72 | 1012.0 |
| 20260906073426 | 84 | 172 | 0.9 | 2.6 | 0.00 | 0.00 | 0.00 | 72 | 1012.1 |
| 20260906072923 | 84 | 182 | 1.7 | 1.7 | 0.00 | 0.00 | 0.00 | 72 | 1012.0 |
| 20260906072418 | 84 | 182 | 0.0 | 0.0 | 0.00 | 0.00 | 0.00 | 72 | 1012.1 |
| 20260906071914 | 84 | 183 | 0.0 | 0.9 | 0.00 | 0.00 | 0.00 | 71 | 1012.1 |
| 20260906071409 | 84 | 160 | 2.6 | 2.6 | 0.00 | 0.00 | 0.00 | 71 | 1012.1 |
| 20260906070905 | 84 | 198 | 0.9 | 1.7 | 0.00 | 0.00 | 0.00 | 71 | 1012.3 |
| 20260906070401 | 84 | 197 | 1.7 | 3.5 | 0.00 | 0.00 | 0.00 | 71 | 1012.4 |
| 20260906065856 | 84 | 184 | 0.9 | 1.7 | 0.00 | 0.00 | 0.00 | 70 | 1012.2 |
| 20260906065350 | 84 | 179 | 1.7 | 1.7 | 0.00 | 0.00 | 0.00 | 70 | 1012.3 |
| 20260906064846 | 85 | 161 | 1.7 | 1.7 | 0.00 | 0.00 | 0.00 | 69 | 1012.4 |
| 20260906064343 | 85 | 180 | 0.9 | 0.9 | 0.00 | 0.00 | 0.00 | 69 | 1012.1 |
| 20260906063842 | 85 | 180 | 0.9 | 1.7 | 0.00 | 0.00 | 0.00 | 69 | 1012.4 |
| 20260906063338 | 85 | 189 | 1.7 | 3.5 | 0.00 | 0.00 | 0.00 | 68 | 1012.2 |
| 20260906062833 | 85 | 178 | 0.9 | 1.7 | 0.00 | 0.00 | 0.00 | 68 | 1012.2 |
| 20260906062332 | 85 | 176 | 1.7 | 3.5 | 0.00 | 0.00 | 0.00 | 67 | 1012.4 |
| 20260906061827 | 85 | 187 | 0.9 | 1.7 | 0.00 | 0.00 | 0.00 | 67 | 1012.4 |
| 20260906061324 | 85 | 153 | 2.6 | 2.6 | 0.00 | 0.00 | 0.00 | 66 | 1012.3 |
| 20260906060818 | 85 | 140 | 2.6 | 2.6 | 0.00 | 0.00 | 0.00 | 66 | 1012.4 |
| 20260906060316 | 86 | 192 | 0.9 | 1.7 | 0.00 | 0.00 | 0.00 | 66 | 1012.5 |
| 20260906055812 | 86 | 171 | 2.6 | 2.6 | 0.00 | 0.00 | 0.00 | 65 | 1012.3 |
| 20260906055307 | 86 | 179 | 1.7 | 2.6 | 0.00 | 0.00 | 0.00 | 65 | 1012.2 |
| 20260906054802 | 86 | 181 | 1.7 | 2.6 | 0.00 | 0.00 | 0.00 | 65 | 1012.3 |
| 20260906054258 | 86 | 192 | 1.7 | 2.6 | 0.00 | 0.00 | 0.00 | 64 | 1012.4 |
| 20260906053754 | 86 | 187 | 3.5 | 3.5 | 0.00 | 0.00 | 0.00 | 64 | 1012.2 |
| 20260906053249 | 86 | 196 | 0.9 | 1.7 | 0.00 | 0.00 | 0.00 | 64 | 1012.2 |
| 20260906052744 | 86 | 173 | 1.7 | 1.7 | 0.00 | 0.00 | 0.00 | 65 | 1012.3 |
| 20260906052240 | 86 | 173 | 0.0 | 0.0 | 0.00 | 0.00 | 0.00 | 66 | 1012.2 |
| 20260906051737 | 86 | 173 | 0.0 | 0.0 | 0.00 | 0.00 | 0.00 | 65 | 1012.4 |
| 20260906051237 | 86 | 173 | 0.9 | 1.7 | 0.00 | 0.00 | 0.00 | 65 | 1012.5 |
| 20260906050732 | 86 | 173 | 0.0 | 1.7 | 0.00 | 0.00 | 0.00 | 65 | 1012.4 |
| 20260906050227 | 86 | 183 | 0.9 | 1.7 | 0.00 | 0.00 | 0.00 | 65 | 1012.3 |
| 20260906045726 | 86 | 177 | 0.0 | 0.9 | 0.00 | 0.00 | 0.00 | 65 | 1012.5 |
| 20260906045221 | 86 | 185 | 0.9 | 1.7 | 0.00 | 0.00 | 0.00 | 65 | 1012.2 |
| 20260906044717 | 86 | 176 | 1.7 | 2.6 | 0.00 | 0.00 | 0.00 | 64 | 1012.3 |
| 20260906044212 | 86 | 173 | 0.9 | 2.6 | 0.00 | 0.00 | 0.00 | 64 | 1012.4 |
| 20260906043708 | 87 | 170 | 1.7 | 3.5 | 0.00 | 0.00 | 0.00 | 64 | 1012.3 |
| 20260906043204 | 87 | 169 | 0.9 | 2.6 | 0.00 | 0.00 | 0.00 | 63 | 1012.3 |
| 20260906042703 | 87 | 174 | 2.6 | 5.2 | 0.00 | 0.00 | 0.00 | 62 | 1012.4 |
| 20260906042203 | 87 | 158 | 1.7 | 3.5 | 0.00 | 0.00 | 0.00 | 62 | 1012.3 |
| 20260906041658 | 87 | 189 | 0.9 | 3.5 | 0.00 | 0.00 | 0.00 | 62 | 1012.3 |
| 20260906041153 | 87 | 151 | 0.9 | 3.5 | 0.00 | 0.00 | 0.00 | 62 | 1012.4 |
| 20260906040649 | 87 | 187 | 2.6 | 3.5 | 0.00 | 0.00 | 0.00 | 62 | 1012.2 |
| 20260906040144 | 87 | 183 | 2.6 | 3.5 | 0.00 | 0.00 | 0.00 | 62 | 1012.1 |
| 20260906035644 | 87 | 201 | 1.7 | 1.7 | 0.00 | 0.00 | 0.00 | 62 | 1012.2 |
| 20260906035140 | 88 | 176 | 0.0 | 0.9 | 0.00 | 0.00 | 0.00 | 62 | 1012.3 |
| 20260906034636 | 88 | 181 | 3.5 | 2.6 | 0.00 | 0.00 | 0.00 | 61 | 1012.3 |
| 20260906034135 | 88 | 178 | 3.5 | 3.5 | 0.00 | 0.00 | 0.00 | 61 | 1012.2 |
| 20260906033631 | 88 | 192 | 1.7 | 1.7 | 0.00 | 0.00 | 0.00 | 61 | 1012.1 |
| 20260906033126 | 88 | 184 | 1.7 | 3.5 | 0.00 | 0.00 | 0.00 | 60 | 1012.3 |
| 20260906032623 | 88 | 102 | 1.7 | 2.6 | 0.00 | 0.00 | 0.00 | 60 | 1012.0 |
| 20260906032122 | 88 | 154 | 1.7 | 3.5 | 0.00 | 0.00 | 0.00 | 60 | 1012.2 |
| 20260906031618 | 88 | 174 | 1.7 | 5.2 | 0.00 | 0.00 | 0.00 | 60 | 1012.1 |
| 20260906031113 | 88 | 109 | 4.3 | 6.1 | 0.00 | 0.00 | 0.00 | 59 | 1012.3 |
| 20260906030612 | 89 | 185 | 2.6 | 5.2 | 0.00 | 0.00 | 0.00 | 59 | 1012.5 |
| 20260906030108 | 89 | 183 | 1.7 | 2.6 | 0.00 | 0.00 | 0.00 | 59 | 1012.5 |
| 20260906025607 | 89 | 149 | 0.9 | 3.5 | 0.00 | 0.00 | 0.00 | 58 | 1012.4 |
| 20260906025106 | 89 | 188 | 0.9 | 5.2 | 0.00 | 0.00 | 0.00 | 58 | 1012.4 |
| 20260906024601 | 89 | 170 | 2.6 | 6.1 | 0.00 | 0.00 | 0.00 | 58 | 1012.0 |
| 20260906024055 | 89 | 134 | 1.7 | 7.8 | 0.00 | 0.00 | 0.00 | 58 | 1012.2 |
| 20260906023551 | 89 | 161 | 2.6 | 3.5 | 0.00 | 0.00 | 0.00 | 57 | 1012.1 |
| 20260906023045 | 89 | 162 | 2.6 | 6.1 | 0.00 | 0.00 | 0.00 | 57 | 1012.0 |
| 20260906022541 | 89 | 167 | 1.7 | 2.6 | 0.00 | 0.00 | 0.00 | 57 | 1012.0 |
| 20260906022036 | 89 | 204 | 1.7 | 2.6 | 0.00 | 0.00 | 0.00 | 57 | 1011.8 |
| 20260906021532 | 89 | 196 | 2.6 | 7.8 | 0.00 | 0.00 | 0.00 | 57 | 1011.6 |
| 20260906021031 | 89 | 153 | 2.6 | 5.2 | 0.00 | 0.00 | 0.00 | 56 | 1011.4 |
| 20260906020530 | 89 | 196 | 3.5 | 6.1 | 0.00 | 0.00 | 0.00 | 56 | 1011.6 |
| 20260906020030 | 89 | 174 | 1.7 | 6.1 | 0.00 | 0.00 | 0.00 | 56 | 1011.5 |
| 20260906015530 | 90 | 185 | 1.7 | 7.0 | 0.00 | 0.00 | 0.00 | 56 | 1011.5 |
| 20260906015029 | 90 | 164 | 2.6 | 5.2 | 0.00 | 0.00 | 0.00 | 56 | 1011.4 |
| 20260906014524 | 90 | 176 | 6.1 | 7.8 | 0.00 | 0.00 | 0.00 | 55 | 1011.4 |
| 20260906014020 | 90 | 152 | 4.3 | 7.0 | 0.00 | 0.00 | 0.00 | 54 | 1011.1 |
| 20260906013516 | 91 | 170 | 4.3 | 8.7 | 0.00 | 0.00 | 0.00 | 54 | 1011.1 |
| 20260906013011 | 91 | 220 | 3.5 | 12.2 | 0.00 | 0.00 | 0.00 | 53 | 1010.9 |
| 20260906012506 | 92 | 129 | 5.2 | 8.7 | 0.00 | 0.00 | 0.00 | 51 | 1011.0 |
| 20260906012005 | 93 | 169 | 2.6 | 6.1 | 0.00 | 0.00 | 0.00 | 50 | 1010.9 |
| 20260906011502 | 93 | 156 | 5.2 | 7.8 | 0.00 | 0.00 | 0.00 | 50 | 1010.6 |
| 20260906010956 | 94 | 164 | 1.7 | 7.0 | 0.00 | 0.00 | 0.00 | 49 | 1010.6 |
| 20260906010451 | 94 | 150 | 6.1 | 11.3 | 0.00 | 0.00 | 0.00 | 48 | 1010.7 |
| 20260906005948 | 95 | 166 | 5.2 | 11.3 | 0.00 | 0.00 | 0.00 | 47 | 1010.4 |
| 20260906005447 | 96 | 182 | 2.6 | 5.2 | 0.00 | 0.00 | 0.00 | 44 | 1010.4 |
| 20260906004945 | 96 | 163 | 0.9 | 2.6 | 0.00 | 0.00 | 0.00 | 43 | 1010.4 |
| 20260906004440 | 96 | 193 | 0.9 | 3.5 | 0.00 | 0.00 | 0.00 | 43 | 1010.2 |
| 20260906003936 | 96 | 161 | 2.6 | 3.5 | 0.00 | 0.00 | 0.00 | 42 | 1010.3 |
| 20260906003436 | 97 | 154 | 1.7 | 6.1 | 0.00 | 0.00 | 0.00 | 42 | 1010.3 |
| 20260906002931 | 97 | 126 | 2.6 | 6.1 | 0.00 | 0.00 | 0.00 | 42 | 1010.3 |
| 20260906002430 | 97 | 99 | 1.7 | 3.5 | 0.00 | 0.00 | 0.00 | 41 | 1010.3 |
| 20260906001925 | 97 | 140 | 0.9 | 6.1 | 0.00 | 0.00 | 0.00 | 41 | 1010.4 |
| 20260906001421 | 97 | 117 | 2.6 | 3.5 | 0.00 | 0.00 | 0.00 | 41 | 1010.2 |
| 20260906000917 | 98 | 175 | 2.6 | 3.5 | 0.00 | 0.00 | 0.00 | 40 | 1010.3 |
| 20260906000412 | 98 | 164 | 0.9 | 2.6 | 0.00 | 0.00 | 0.00 | 40 | 1010.3 |
| 20260905235907 | 98 | 172 | 1.7 | 2.6 | 0.00 | 0.00 | 0.00 | 40 | 1010.3 |
| 20260905235400 | 98 | 160 | 3.5 | 6.1 | 0.00 | 0.00 | 0.00 | 39 | 1010.2 |
| 20260905234856 | 98 | 109 | 1.7 | 1.7 | 0.00 | 0.00 | 0.00 | 39 | 1010.0 |
| 20260905234351 | 98 | 144 | 0.0 | 0.9 | 0.00 | 0.00 | 0.00 | 40 | 1010.2 |
| 20260905233846 | 98 | 158 | 1.7 | 1.7 | 0.00 | 0.00 | 0.00 | 39 | 1009.9 |
| 20260905233341 | 99 | 179 | 3.5 | 6.1 | 0.00 | 0.00 | 0.00 | 39 | 1010.1 |
| 20260905232840 | 99 | 180 | 1.7 | 6.1 | 0.00 | 0.00 | 0.00 | 39 | 1010.1 |
| 20260905232337 | 99 | 210 | 0.0 | 1.7 | 0.00 | 0.00 | 0.00 | 39 | 1009.9 |
| 20260905231832 | 98 | 137 | 2.6 | 3.5 | 0.00 | 0.00 | 0.00 | 39 | 1010.1 |